TimeMST,TemperatureF,Dew PointF,Humidity,Sea Level PressureIn,VisibilityMPH,Wind Direction,Wind SpeedMPH,Gust SpeedMPH,PrecipitationIn,Events,Conditions,WindDirDegrees,DateUTC
12:10 AM,31.1,30.0,96,29.67,7.0,Calm,Calm,-,N/A,,Clear,0,2013-03-09 07:10:00
12:28 AM,31.5,30.7,97,29.66,5.0,Calm,Calm,-,N/A,,Clear,0,2013-03-09 07:28:00
12:45 AM,31.3,30.2,96,29.66,7.0,Calm,Calm,-,N/A,,Clear,0,2013-03-09 07:45:00
1:08 AM,30.0,29.3,97,29.66,5.0,Calm,Calm,-,N/A,,Clear,0,2013-03-09 08:08:00
1:25 AM,30.2,29.3,96,29.66,7.0,Calm,Calm,-,N/A,,Clear,0,2013-03-09 08:25:00
1:48 AM,29.7,28.8,96,29.65,5.0,Calm,Calm,-,N/A,,Scattered Clouds,0,2013-03-09 08:48:00
2:09 AM,29.7,29.1,98,29.64,5.0,WSW,3.5,-,N/A,,Scattered Clouds,240,2013-03-09 09:09:00
2:28 AM,29.8,29.3,98,29.63,7.0,Calm,Calm,-,N/A,,Clear,0,2013-03-09 09:28:00
2:45 AM,30.0,29.3,97,29.63,7.0,Calm,Calm,-,N/A,,Clear,0,2013-03-09 09:45:00
3:07 AM,30.9,29.5,94,29.63,7.0,Calm,Calm,-,N/A,,Mostly Cloudy,0,2013-03-09 10:07:00
3:26 AM,31.1,30.2,96,29.63,7.0,Calm,Calm,-,N/A,,Overcast,0,2013-03-09 10:26:00
3:48 AM,32.0,30.9,96,29.64,7.0,Calm,Calm,-,N/A,,Overcast,0,2013-03-09 10:48:00
4:08 AM,32.0,31.1,96,29.64,7.0,Calm,Calm,-,N/A,,Overcast,0,2013-03-09 11:08:00
4:29 AM,32.0,31.6,99,29.65,4.0,Calm,Calm,-,N/A,Snow,Light Snow,0,2013-03-09 11:29:00
4:47 AM,32.5,32.0,98,29.66,1.8,Calm,Calm,-,N/A,Snow,Light Snow,0,2013-03-09 11:47:00
5:06 AM,32.4,32.0,99,29.66,1.5,Calm,Calm,-,N/A,Snow,Light Snow,0,2013-03-09 12:06:00
5:29 AM,32.5,32.2,99,29.67,1.2,Calm,Calm,-,N/A,Snow,Light Snow,0,2013-03-09 12:29:00
5:49 AM,32.5,32.4,99,29.68,1.0,Calm,Calm,-,N/A,Snow,Light Snow,0,2013-03-09 12:49:00
6:07 AM,32.9,32.9,100,29.68,1.2,Calm,Calm,-,N/A,Snow,Light Snow,0,2013-03-09 13:07:00
6:27 AM,32.9,32.9,100,29.69,2.0,Calm,Calm,-,N/A,Snow,Light Snow,0,2013-03-09 13:27:00
6:47 AM,33.1,33.1,100,29.69,1.8,Calm,Calm,-,N/A,Snow,Light Snow,0,2013-03-09 13:47:00
7:16 AM,32.9,32.9,100,29.70,0.8,Calm,Calm,-,N/A,Snow,Light Snow,0,2013-03-09 14:16:00
7:18 AM,32.9,32.9,100,29.70,0.8,Calm,Calm,-,N/A,Snow,Light Snow,0,2013-03-09 14:18:00
9:56 AM,33.3,33.1,99,29.76,1.2,North,12.7,-,N/A,Snow,Light Snow,350,2013-03-09 16:56:00
10:16 AM,33.4,33.3,99,29.76,1.5,North,12.7,18.4,N/A,Snow,Light Snow,360,2013-03-09 17:16:00
10:36 AM,33.4,32.9,98,29.76,1.2,North,16.1,20.7,N/A,Snow,Light Snow,10,2013-03-09 17:36:00
10:56 AM,33.3,32.9,99,29.77,1.0,North,12.7,-,N/A,Snow,Light Snow,10,2013-03-09 17:56:00
11:16 AM,33.1,32.9,99,29.77,1.2,North,12.7,-,N/A,Snow,Light Snow,360,2013-03-09 18:16:00
11:36 AM,33.1,32.9,99,29.78,1.2,North,13.8,-,N/A,Snow,Light Snow,10,2013-03-09 18:36:00
11:56 AM,33.4,32.5,96,29.79,1.8,North,18.4,26.5,N/A,Snow,Light Snow,360,2013-03-09 18:56:00
12:16 PM,33.3,32.5,97,29.79,1.5,North,17.3,21.9,N/A,Snow,Light Snow,360,2013-03-09 19:16:00
12:36 PM,32.2,32.0,99,29.80,0.8,North,21.9,27.6,N/A,Snow,Light Snow,10,2013-03-09 19:36:00
12:56 PM,32.0,31.5,98,29.80,0.8,North,20.7,26.5,N/A,Snow,Light Snow,10,2013-03-09 19:56:00
1:16 PM,32.0,31.5,98,29.81,0.8,North,18.4,23.0,N/A,Snow,Light Snow,10,2013-03-09 20:16:00
1:36 PM,32.0,31.5,98,29.82,1.0,North,18.4,24.2,N/A,Snow,Light Snow,360,2013-03-09 20:36:00
1:56 PM,32.0,30.9,96,29.83,1.0,North,16.1,25.3,N/A,Snow,Light Snow,360,2013-03-09 20:56:00
2:16 PM,32.0,30.9,96,29.83,1.0,North,20.7,28.8,N/A,Snow,Light Snow,360,2013-03-09 21:16:00
2:36 PM,31.8,30.9,96,29.83,0.8,North,18.4,24.2,N/A,Snow,Light Snow,10,2013-03-09 21:36:00
2:56 PM,32.0,30.9,96,29.84,0.8,North,20.7,24.2,N/A,Snow,Light Snow,10,2013-03-09 21:56:00
3:16 PM,32.0,31.1,96,29.84,3.0,North,13.8,-,N/A,Snow,Light Snow,360,2013-03-09 22:16:00
3:36 PM,32.0,30.2,93,29.84,1.8,NNE,18.4,21.9,N/A,Snow,Light Snow,20,2013-03-09 22:36:00
3:56 PM,32.0,30.2,93,29.85,3.0,NNE,12.7,18.4,N/A,Snow,Light Snow,30,2013-03-09 22:56:00
4:16 PM,32.0,31.1,96,29.86,2.0,NNE,13.8,-,N/A,Snow,Light Snow,20,2013-03-09 23:16:00
4:36 PM,32.4,31.1,95,29.87,5.0,NNE,9.2,-,N/A,Snow,Light Snow,20,2013-03-09 23:36:00
4:56 PM,34.2,27.3,76,29.87,10.0,NNE,24.2,29.9,N/A,,Overcast,20,2013-03-09 23:56:00
5:16 PM,34.9,24.3,65,29.88,10.0,NNE,15.0,26.5,N/A,,Overcast,20,2013-03-10 00:16:00
5:36 PM,34.2,24.1,67,29.90,10.0,NNE,12.7,-,N/A,,Overcast,20,2013-03-10 00:36:00
5:56 PM,33.1,24.8,72,29.91,10.0,North,8.1,-,N/A,,Overcast,350,2013-03-10 00:56:00
6:16 PM,33.3,23.9,69,29.92,10.0,North,10.4,-,N/A,,Mostly Cloudy,10,2013-03-10 01:16:00
6:36 PM,32.9,23.5,68,29.94,10.0,North,12.7,16.1,N/A,,Mostly Cloudy,10,2013-03-10 01:36:00
6:56 PM,32.5,23.0,68,29.96,10.0,North,13.8,-,N/A,,Mostly Cloudy,10,2013-03-10 01:56:00
7:16 PM,32.0,21.9,66,29.97,10.0,North,16.1,25.3,N/A,,Overcast,10,2013-03-10 02:16:00
7:36 PM,31.8,21.2,65,29.99,10.0,North,16.1,-,N/A,,Mostly Cloudy,10,2013-03-10 02:36:00
7:56 PM,30.9,20.3,65,30.00,10.0,NNE,16.1,-,N/A,,Mostly Cloudy,20,2013-03-10 02:56:00
8:16 PM,30.9,19.2,62,30.01,10.0,NNE,18.4,23.0,N/A,,Scattered Clouds,20,2013-03-10 03:16:00
8:36 PM,30.7,19.2,62,30.02,10.0,NNE,16.1,-,N/A,,Mostly Cloudy,20,2013-03-10 03:36:00
8:56 PM,30.2,18.5,62,30.03,10.0,NNE,23.0,28.8,N/A,,Scattered Clouds,20,2013-03-10 03:56:00
9:16 PM,30.2,17.2,59,30.05,10.0,NNE,18.4,24.2,N/A,,Clear,20,2013-03-10 04:16:00
9:36 PM,29.8,17.2,59,30.05,10.0,NNE,18.4,-,N/A,,Clear,20,2013-03-10 04:36:00
9:56 PM,29.3,17.6,62,30.06,10.0,NNE,15.0,20.7,N/A,,Clear,20,2013-03-10 04:56:00
10:16 PM,28.4,17.6,64,30.07,10.0,North,16.1,19.6,N/A,,Clear,10,2013-03-10 05:16:00
10:36 PM,27.3,17.6,67,30.07,10.0,North,6.9,-,N/A,,Clear,10,2013-03-10 05:36:00
10:56 PM,25.2,17.6,73,30.07,10.0,NNW,4.6,-,N/A,,Scattered Clouds,340,2013-03-10 05:56:00
11:16 PM,25.3,18.1,74,30.07,10.0,Calm,Calm,-,N/A,,Mostly Cloudy,0,2013-03-10 06:16:00
11:36 PM,24.4,18.0,76,30.06,10.0,Calm,Calm,-,N/A,,Scattered Clouds,0,2013-03-10 06:36:00
11:56 PM,21.0,16.0,81,30.06,10.0,Calm,Calm,-,N/A,,Clear,0,2013-03-10 06:56:00